Location: *
(33.8649°S, 62.1526°E)
Time: 19:45:47
(UTC+00:00)

Cosmos 44 Rocket - Pass Details

Date: 08 December 2021
Orbit: 648 x 741 km, 65.1° (Epoch: 23 January)

Event Time Altitude Azimuth Distance (km) Brightness Sun altitude
Rises 15:16:27 0° 22° (NNE) 2,954 6.0 -5.0°
Reaches altitude 10° 15:20:18 10° 54° (NE) 2,055 5.0 -5.6°
Maximum altitude 15:21:50 12° 74° (ENE) 1,958 5.0 -5.9°
Drops below altitude 10° 15:23:24 10° 94° (E) 2,068 5.3 -6.2°
Sets 15:27:17 0° 126° (SE) 3,001 6.4 -6.9°
